Regional Weather Roundup
Issued by NWS

Home | Current Version | Previous Version | Graphics & Text | Print | Product List | Glossary Off
Versions: 1 2 3 4 5 6 7 8 9 10 11 12 13 14 15 16 17 18 19 20 21 22 23 24 25 26 27 28 29 30 31 32 33 34 35 36 37 38 39 40 41 42 43 44 45 46 47 48 49 50

000
ASUS43 KDMX 020707
RWRIA

WEATHER ROUNDUP FOR IOWA
NATIONAL WEATHER SERVICE DES MOINES IA
200 AM CDT WED SEP 02 2015

NOTE: "FAIR" INDICATES FEW OR NO CLOUDS BELOW 12,000 FEET WITH NO
SIGNIFICANT WEATHER AND/OR OBSTRUCTIONS TO VISIBILITY.

* - THESE STATIONS ARE NOT NWS STATIONS...THUS NOT UNDER NWS
QUALITY CONTROL.  THEY ALSO DO NOT REPORT WEATHER SUCH
AS PRECIPITATION OR FOG.

IAZ001>003-012>014-020>022-031>034-043>046-020800-
   NORTHWEST IOWA

CITY           SKY/WX    TMP DP  RH WIND       PRES   REMARKS
CARROLL *      CLOUDY    75  68  78 S15G23    29.92F
CHEROKEE *     PTCLDY    75  68  78 S13       29.88F
DENISON *      PTCLDY    73  68  83 S12G20    29.90F
LE MARS *      CLEAR     73  68  83 S8        29.87F
ORANGE CITY *  CLEAR     72  70  94 S9        29.88F
SHELDON *      CLEAR     72  68  88 S10G16    29.87S
SIOUX CITY     CLEAR     74  66  76 S9        29.86F
SPENCER        MOCLDY    74  66  76 S12       29.89F
STORM LAKE *   MOCLDY    73  68  83 S14G20    29.91F
$$

IAZ055>058-069>071-079>083-090>094-020800-
   SOUTHWEST IOWA

CITY           SKY/WX    TMP DP  RH WIND       PRES   REMARKS
ATLANTIC *     CLOUDY    75  68  78 S13       29.95S
AUDUBON *      PTCLDY    73  66  78 S10G17    29.96S
CLARINDA *     CLOUDY    73  70  88 S9G16     29.98R
COUNCIL BLFS * CLEAR     75  68  78 S14       29.92F
CRESTON *      DRIZZLE   72  70  94 W8        30.02R
LAMONI         MOCLDY    74  66  76 S8        29.98F
RED OAK *      CLOUDY    75  68  78 SE9       29.95S
SHENANDOAH *   MOCLDY    75  70  83 S13G21    29.94F
$$

IAZ047>049-059>061-072>074-084-020800-
   CENTRAL IOWA

CITY           SKY/WX    TMP DP  RH WIND       PRES   REMARKS
AMES           MOCLDY    72  68  87 S7        29.95F
ANKENY *       CLEAR     77  68  73 S8        29.97R
CHARITON *     MOCLDY    73  66  78 S9        29.98F
DES MOINES     CLOUDY    76  67  73 SW8       29.98R THUNDER
GRINNELL*      CLEAR     70  66  88 SE7       29.99F
KNOXVILLE *    CLEAR     72  66  83 S6        29.97S
MARSHALLTOWN   PTCLDY    70  67  90 SE7       29.96F
PELLA *        CLEAR     72  70  94 SE5       29.99F
PERRY *        LGT RAIN  73  70  88 S14G20    29.95S
$$

IAZ004>006-015-016-023>025-035-036-020800-
   NORTH CENTRAL IOWA

CITY           SKY/WX    TMP DP  RH WIND       PRES   REMARKS
ALGONA *       MOCLDY    73  68  83 S14G20    29.94F
CLARION *      PTCLDY    72  68  88 S9        29.95S
ESTHERVILLE    MOCLDY    71  68  90 SE7       29.91S
FORT DODGE *   CLOUDY    73  66  78 S9        29.95S THUNDER
MASON CITY     MOCLDY    70  68  93 S6        29.96F
FOREST CITY *  MOCLDY    72  70  94 S6        29.95F
IOWA FALLS *     N/A     72  68  88 S7        29.97S
$$

IAZ007>011-017>019-026>030-037>042-050>054-066-020800-
   NORTHEAST IOWA

CITY           SKY/WX    TMP DP  RH WIND       PRES   REMARKS
CEDAR RAPIDS   CLEAR     71  69  93 S6        29.99F
CHARLES CITY * MOCLDY    72  72 100 S5        29.98F
CLINTON *      PTCLDY    72  66  83 S6        30.03F
DECORAH *      CLEAR     73  70  88 CALM      29.98S
DUBUQUE        CLEAR     69  67  93 S7        30.01F
MONTICELLO *   CLEAR     70  68  94 CALM      30.00F
OELWEIN *        N/A     72  70  94 S6        30.00S
WATERLOO       PTCLDY    73  68  84 S8        29.96F
$$

IAZ064-065-067-068-078-020800-
   EAST CENTRAL IOWA

CITY           SKY/WX    TMP DP  RH WIND       PRES   REMARKS
DAVENPORT      CLEAR     72  68  87 S6        30.02F
IOWA CITY      CLEAR     69  67  93 CALM      30.00F
MT. PLEASANT * CLEAR     72  68  88 S6        30.01F
MUSCATINE *    CLEAR     73  68  83 S3        30.00F
QUAD CITIES    PTCLDY    73  67  81 CALM      30.01F
$$

IAZ062-063-075>077-085>089-095>099-020800-
   SOUTHEAST IOWA

CITY           SKY/WX    TMP DP  RH WIND       PRES   REMARKS
BURLINGTON     CLEAR     71  69  93 SW6       30.02F
FAIRFIELD *    CLEAR     72  68  88 S5        30.00F
FORT MADISON * CLEAR     73  70  88 S8        30.03S
KEOKUK *       CLEAR     75  68  78 S8        30.01F
OSKALOOSA *      N/A     68  66  94 S6        29.99F
CENTERVILLE *  CLEAR     68  66  94 S6        30.01F
OTTUMWA        CLEAR     71  69  93 S7        29.98F
WASHINGTON *     N/A    N/A N/A N/A MISG        N/A
$$

ABBREVIATIONS USED IN REMARKS
   TC - TEMPERATURES IN CELSIUS
  WCI - WIND CHILL INDEX
   HX - HEAT INDEX
  VSB - VISIBILITY
$$




USA.gov is the U.S. government's official web portal to all federal, state and local government web resources and services.